Home   Weather   Sorocaba   Past weeks

Flag for Brazil Past Weather in Sorocaba, São Paulo, Brazil — Yesterday and Last 2 Weeks

Now
79 °F

Clear.


Feels Like: 79 °F
Forecast: 54 / 84 °F
Wind: 20 mph from Southeast

Location: Campinas Aeroporto

Current Time: Sep 29, 2016 at 5:37:38 PM

Latest Report: Sep 29, 2016 at 5:00 PM


Visibility: 6 mi

Pressure: 29.92 "Hg (27.93 "Hg at 602m altitude)

Humidity: 37%

Dew Point: 50 °F

Location of SorocabaLocation

Past Weather in Sorocaba — Graph

°F

Sorocaba Temperature Yesterday

Maximum temperature yesterday: 84 °F (at 3:00 PM)
Minimum temperature yesterday: 55 °F (at 2:00 AM)
Average temperature yesterday: 69 °F

High & Low Weather Summary for the Past Weeks

 TemperatureHumidityPressure
High93 °F (Sep 18, 3:00 PM)94% (Sep 18, 10:00 PM)30.21 "Hg (Sep 18, 10:00 PM)
Low50 °F (Sep 21, 5:00 AM)11% (Sep 27, 4:00 PM)29.92 "Hg (Sep 29, 3:00 PM)
Average68 °F58%30.08 "Hg
* Reported Sep 14 4:00 PM — Sep 29 4:00 PM, Sorocaba, Weather by CustomWeather, © 2016

Note: Actual official high and low records may vary slightly from our data, if they occured in-between our weather recording intervals... More about our weather records

Advertising

Sorocaba Weather History for the Previous 24 Hours

Scroll right to see more
 ConditionsComfort  
Time TempWeatherWind HumidityBarometerVisibility
4:00 PM
Thu, Sep 29
86 °FSunny.12 mph15%29.92 "Hg10 mi
3:00 PM86 °FSunny.6 mph13%29.92 "Hg10 mi
2:00 PM86 °FSunny.5 mph12%29.95 "Hg10 mi
1:00 PM84 °FSunny.7 mph14%29.98 "Hg10 mi
12:00 PM82 °FSunny.7 mph14%30.01 "Hg10 mi
11:00 AM82 °FSunny.9 mph15%30.04 "Hg10 mi
10:00 AM79 °FSunny.10 mph24%30.04 "Hg10 mi
9:00 AM75 °FSunny.6 mph31%30.07 "Hg10 mi
8:00 AM70 °FClear.6 mph57%30.07 "Hg4 mi
7:00 AM63 °FClear.8 mph73%30.04 "Hg4 mi
6:00 AM61 °FClear.9 mph77%30.01 "Hg4 mi
5:00 AM61 °FClear.9 mph77%30.01 "Hg10 mi
4:00 AM61 °FClear.8 mph77%30.01 "Hg10 mi
3:00 AM63 °FClear.9 mph73%29.98 "Hg10 mi
2:00 AM63 °FClear.10 mph77%30.01 "Hg10 mi
1:00 AM64 °FClear.10 mph73%30.01 "Hg10 mi
12:00 AM64 °FClear.9 mph73%30.04 "Hg10 mi
11:00 PM
Wed, Sep 28
66 °FClear.12 mph68%30.04 "Hg10 mi
10:00 PM68 °FClear.12 mph69%30.04 "Hg10 mi
9:00 PM68 °FClear.12 mph69%30.04 "Hg10 mi
8:00 PM75 °FClear.8 mph36%30.01 "Hg10 mi
7:00 PM79 °FClear.8 mph32%30.01 "Hg10 mi
6:00 PM81 °FSunny.10 mph32%30.01 "Hg10 mi
5:00 PM84 °FSunny.8 mph27%30.01 "Hg10 mi
Weather by CustomWeather, © 2016

See weather overviewHow to use our weather pages